Weather History for KCEU - October, 2013

Change the Weather History Date:

Wednesday, October 16, 2013

  Actual Average Record
Temperature  
Mean Temperature 64 °F -  
Max Temperature 73 °F 75 °F 86 °F (1930)
Min Temperature 57 °F 49 °F 28 °F (1939)
Growing Degree Days 14 (Base 50)    
Moisture  
Dew Point 55 °F    
Average Humidity 77    
Maximum Humidity 94    
Minimum Humidity 53    
Precipitation  
Precipitation 0.00 in - - ()
Sea Level Pressure  
Sea Level Pressure 30.04 in    
Wind  
Wind Speed 1 mph (NW)    
Max Wind Speed 4 mph    
Max Gust Speed -    
Visibility 6 miles    
Events Fog    
Averages and records for this station are not official NWS values.
T = Trace of Precipitation, MM = Missing Value Source: NWS Daily Summary

Daily Weather History Graph

Daily Weather History Graph

Search for Another Location

Airport or City:

Trip Planner

Search our weather history database for the weather conditions in past years. The results will help you decide how hot, cold, wet, or windy it might be!

Date:

Astronomy

Oct. 16, 2013 Rise Set
Actual Time 7:38 AM EDT 6:55 PM EDT
Civil Twilight 7:12 AM EDT 7:20 PM EDT
Nautical Twilight 6:43 AM EDT 7:49 PM EDT
Astronomical Twilight 6:14 AM EDT 8:19 PM EDT
Moon 5:30 PM EDT (10/16) 5:10 AM EDT (10/16)
Length of Visible Light 12h 07m
Length of Day
11h 17m
Waxing Gibbous, 94% of the Moon is Illuminated
Oct 16
Waxing Gibbous
Oct 18
Full
Oct 26
Last Quarter
Nov 3
New
Nov 10
First Quarter

Hourly Weather History & Observations

Time (EDT) Temp. Dew Point Humidity Pressure Visibility Wind Dir Wind Speed Gust Speed Precip Events Conditions
12:54 AM 61.0 °F 55.9 °F 83% 30.07 in 10.0 mi Calm Calm - N/A   Clear
1:46 AM 60.8 °F 55.4 °F 82% 30.07 in 4.0 mi Calm Calm - N/A   Scattered Clouds
1:49 AM 60.8 °F 55.4 °F 82% 30.07 in 1.5 mi Calm Calm - N/A   Mostly Cloudy
1:51 AM 60.8 °F 55.4 °F 82% 30.07 in 0.8 mi Calm Calm - N/A   Mist
1:54 AM 60.1 °F 55.9 °F 86% 30.06 in 0.5 mi Calm Calm - N/A Fog Fog
2:01 AM 60.8 °F 55.4 °F 82% 30.07 in 0.2 mi Calm Calm - N/A Fog Fog
2:42 AM 59.0 °F 55.4 °F 88% 30.08 in 0.5 mi Calm Calm - N/A Fog Fog
2:51 AM 59.0 °F 55.4 °F 88% 30.07 in 0.2 mi Calm Calm - N/A Fog Fog
2:54 AM 59.0 °F 55.9 °F 90% 30.06 in 0.2 mi Calm Calm - N/A Fog Fog
3:01 AM 60.8 °F 55.4 °F 82% 30.07 in 0.5 mi Calm Calm - N/A Fog Fog
3:54 AM 59.0 °F 55.9 °F 90% 30.04 in 0.8 mi Calm Calm - N/A   Mist
4:06 AM 59.0 °F 55.4 °F 88% 30.05 in 0.2 mi Calm Calm - N/A Fog Fog
4:49 AM 59.0 °F 55.4 °F 88% 30.05 in 0.5 mi North 3.5 mph - N/A Fog Fog
4:54 AM 59.0 °F 55.0 °F 87% 30.04 in 0.8 mi NNW 3.5 mph - N/A   Overcast
5:16 AM 57.2 °F 55.4 °F 94% 30.06 in 2.0 mi Calm Calm - N/A   Mostly Cloudy
5:21 AM 59.0 °F 55.4 °F 88% 30.06 in 5.0 mi Calm Calm - N/A   Scattered Clouds
5:54 AM 59.0 °F 55.0 °F 87% 30.04 in 10.0 mi Calm Calm - N/A   Clear
6:39 AM 57.2 °F 55.4 °F 94% 30.07 in 1.8 mi North 3.5 mph - N/A   Partly Cloudy
6:50 AM 57.2 °F 53.6 °F 88% 30.07 in 3.0 mi North 3.5 mph - N/A   Partly Cloudy
6:54 AM 57.0 °F 54.0 °F 89% 30.05 in 9.0 mi Calm Calm - N/A   Partly Cloudy
7:54 AM 57.0 °F 53.1 °F 87% 30.06 in 10.0 mi Calm Calm - N/A   Clear
8:54 AM 62.1 °F 55.0 °F 78% 30.07 in 10.0 mi Calm Calm - N/A   Clear
9:54 AM 64.9 °F 54.0 °F 68% 30.08 in 10.0 mi NNE 3.5 mph - N/A   Clear
10:54 AM 68.0 °F 55.0 °F 63% 30.08 in 10.0 mi Calm Calm - N/A   Mostly Cloudy
11:54 AM 71.1 °F 55.9 °F 59% 30.06 in 10.0 mi Calm Calm - N/A   Scattered Clouds
12:54 PM 71.1 °F 55.0 °F 57% 30.05 in 10.0 mi East 3.5 mph - N/A   Mostly Cloudy
1:54 PM 71.1 °F 53.1 °F 53% 30.02 in 10.0 mi SW 3.5 mph - N/A   Partly Cloudy
2:54 PM 72.0 °F 55.0 °F 55% 30.00 in 10.0 mi Variable 3.5 mph - N/A   Clear
3:54 PM 72.0 °F 55.0 °F 55% 29.99 in 10.0 mi SW 3.5 mph - N/A   Partly Cloudy
4:54 PM 72.0 °F 55.0 °F 55% 29.98 in 10.0 mi SSW 3.5 mph - N/A   Clear
5:54 PM 70.0 °F 55.9 °F 61% 29.99 in 10.0 mi SW 3.5 mph - N/A   Clear
6:54 PM 68.0 °F 55.9 °F 65% 29.98 in 10.0 mi Calm Calm - N/A   Clear
7:54 PM 69.1 °F 55.9 °F 63% 30.00 in 10.0 mi Calm Calm - N/A   Overcast
8:54 PM 68.0 °F 57.0 °F 68% 30.00 in 10.0 mi Calm Calm - N/A   Mostly Cloudy
9:54 PM 66.0 °F 57.9 °F 75% 30.00 in 10.0 mi Calm Calm - N/A   Overcast
10:54 PM 66.0 °F 57.9 °F 75% 30.01 in 10.0 mi Calm Calm - N/A   Overcast
11:54 PM 64.9 °F 57.9 °F 78% 29.99 in 10.0 mi Calm Calm - N/A   Partly Cloudy